Location: Catenanuova
(37.5690°N, 14.6870°E)
Time: 21:30:15
(UTC+02:00)

BlueWalker 3 - Pass Details

Date: 14 May 2025
Orbit: 460 x 472 km, 53.2° (Epoch: 16 June)

Event Time Altitude Azimuth Distance (km) Brightness Sun altitude
Rises 00:41:19 0° 321° (NW) 2,498 6.2 -33.7°
Reaches altitude 10° 00:43:47 10° 336° (NNW) 1,623 5.2 -33.7°
Enters shadow 00:43:49 10° 337° (NNW) 1,610 5.2 -33.7°
